Stations météo

Publicité
Chartres, France (7143): Température de l'air & dewpoint: 10.08.2017 17:00:00 - 16.08.2017 17:00:00 (CEST)Chartres, France (7143): Température de l'air 5cm: 10.08.2017 17:00:00 - 16.08.2017 17:00:00 (CEST)Chartres, France (7143): Température de l'air -20cm & Température de l'air -100cm: 10.08.2017 17:00:00 - 16.08.2017 17:00:00 (CEST)Chartres, France (7143): Vitesse du vent & gusts: 10.08.2017 17:00:00 - 16.08.2017 17:00:00 (CEST)Chartres, France (7143): Direction du vent: 10.08.2017 17:00:00 - 16.08.2017 17:00:00 (CEST)Chartres, France (7143): reduced air pressure: 10.08.2017 17:00:00 - 16.08.2017 17:00:00 (CEST)Chartres, France (7143): visibility: 10.08.2017 17:00:00 - 16.08.2017 17:00:00 (CEST)Chartres, France (7143): Ensoleillement: 10.08.2017 17:00:00 - 16.08.2017 17:00:00 (CEST)Chartres, France (7143): Quantités de précipitations: 10.08.2017 17:00:00 - 16.08.2017 17:00:00 (CEST)
Date & Time tt [°C] td [°C] tt 5cm [°C] tt -20cm [°C] tt -100cm [°C] ff [km/h] ff [knt] fx [km/h] fx [knt] dd ppp [hPa] vv [km] sd [min] rr [mm]
16.08.2017 17:00:00 25,1 16,8 23,5 19,5 17,8 14 8 26 14 SSW 1019,0 20 18 0,0
16.08.2017 16:00:00 24,3 15,8 23,8 19,3 17,8 14 7 27 14 SSE 1019,2 20 12 0,0
16.08.2017 15:00:00 22,7 16,0 24,0 19,1 17,8 12 7 25 13 ESE 1019,7 20 2 0,0
16.08.2017 14:00:00 23,3 14,6 25,7 19,0 17,8 11 6 21 11 ESE 1020,5 20 17 0,0
16.08.2017 13:00:00 21,9 14,3 22,7 18,9 17,8 8 5 15 8 E 1020,5 20 0 0,0
16.08.2017 12:00:00 20,6 14,5 23,3 18,8 17,8 7 4 16 8 ESE 1021,2 20 17 0,0
16.08.2017 11:00:00 19,3 13,5 22,0 18,8 17,8 7 4 14 8 E 1021,3 20 26 0,0
16.08.2017 10:00:00 17,0 13,9 17,3 18,8 17,8 4 2 8 5 NE 1021,4 20 13 0,0
16.08.2017 09:00:00 14,9 12,9 15,6 18,9 17,8 3 2 9 5 NE 1021,5 20 8 0,0
16.08.2017 08:00:00 14,1 12,5 12,7 19,0 17,8 6 3 10 6 NNE 1021,3 20 36 0,0
16.08.2017 07:00:00 13,5 12,1 12,4 19,2 17,8 2 1 9 5 NNE 1021,6 20 0 0,0
16.08.2017 06:00:00 13,3 11,9 11,9 19,3 17,8 2 1 11 6 E 1021,1 20 0 0,2
16.08.2017 05:00:00 14,1 12,3 12,7 19,4 17,8 8 4 13 7 N 1020,8 20 0 0,0
16.08.2017 04:00:00 14,6 12,5 13,1 19,5 17,8 9 5 14 8 N 1020,9 20 0 0,0
16.08.2017 03:00:00 14,8 12,3 12,8 19,6 17,8 5 3 10 6 NNW 1020,7 20 0 0,0
16.08.2017 02:00:00 15,6 12,5 13,9 19,7 17,8 6 4 13 7 N 1020,8 20 0 0,0
16.08.2017 01:00:00 17,0 12,9 15,7 19,8 17,8 9 5 18 10 N 1020,8 20 0 0,0
16.08.2017 00:00:00 17,8 13,1 16,5 19,8 17,8 10 5 20 11 N 1020,5 20 0 0,0
15.08.2017 23:00:00 19,5 13,2 18,4 19,8 17,8 13 7 26 14 N 1019,7 20 0 0,0
15.08.2017 22:00:00 21,5 14,2 20,7 19,9 17,8 13 7 26 14 NNW 1018,9 20 0 0,0
15.08.2017 21:00:00 22,5 14,9 21,4 19,8 17,8 9 5 19 10 NW 1017,8 20 26 0,0
15.08.2017 20:00:00 22,8 15,6 22,1 19,8 17,8 8 4 19 10 N 1017,0 20 1 0,0
15.08.2017 19:00:00 22,2 18,6 22,6 19,7 17,8 10 5 24 13 SSW 1016,6 20 6 0,0
15.08.2017 18:00:00 23,1 19,3 19,2 19,6 17,8 6 4 18 10 SW 1016,5 20 7 0,0
15.08.2017 17:00:00 21,1 17,1 19,2 19,5 17,8 14 7 22 12 SSW 1016,4 4,4 0 2,8
15.08.2017 16:00:00 25,1 15,1 25,8 19,3 17,8 10 5 26 14 W 1016,1 20 0 0,0
15.08.2017 15:00:00 26,0 15,4 28,1 19,2 17,8 13 7 28 15 W 1015,9 20 6 0,0
15.08.2017 14:00:00 25,3 15,0 28,6 19,0 17,8 8 4 20 11 W 1015,5 20 43 0,0
15.08.2017 13:00:00 24,7 16,7 24,5 19,0 17,8 10 5 22 12 W 1015,3 19 13 0,0
15.08.2017 12:00:00 22,9 15,7 22,7 19,0 17,8 8 4 23 12 W 1014,8 20 0 0,0
15.08.2017 11:00:00 21,8 15,6 22,1 19,0 17,8 10 6 23 13 WSW 1015,0 20 0 0,0
15.08.2017 10:00:00 22,0 16,0 22,3 19,0 17,8 13 7 26 14 W 1014,0 20 0 0,0
15.08.2017 09:00:00 22,3 16,1 21,3 19,0 17,8 12 7 26 14 W 1012,5 20 2 0,0
15.08.2017 08:00:00 21,4 16,1 20,4 19,1 17,8 11 6 32 17 SW 1011,8 20 7 0,0
15.08.2017 07:00:00 20,9 15,7 19,4 19,1 17,8 13 7 30 16 SW 1011,2 20 0 0,0
15.08.2017 06:00:00 20,2 15,2 18,4 19,2 17,8 9 5 22 12 S 1011,1 20 0 0,0
15.08.2017 05:00:00 19,8 14,8 18,4 19,2 17,8 8 4 17 9 SSE 1011,6 20 0 0,0
15.08.2017 04:00:00 19,8 14,6 18,6 19,3 17,8 7 4 18 10 SE 1012,4 20 0 0,0
15.08.2017 03:00:00 19,6 14,4 16,6 19,5 17,8 5 3 11 6 ENE 1013,3 20 0 0,0
15.08.2017 02:00:00 17,9 14,2 14,2 19,5 17,8 5 3 7 4 ENE 1013,5 20 0 0,0
15.08.2017 01:00:00 18,1 13,8 14,4 19,6 17,8 4 2 6 4 ENE 1013,9 20 0 0,0
15.08.2017 00:00:00 18,6 13,7 14,6 19,7 17,8 4 2 6 3 ENE 1014,2 20 0 0,0
14.08.2017 23:00:00 20,4 13,6 17,7 19,7 17,8 0 0 8 5 N 1014,3 20 0 0,0
14.08.2017 22:00:00 21,5 13,7 18,8 19,7 17,8 4 2 8 4 E 1014,2 20 0 0,0
14.08.2017 21:00:00 23,1 13,6 19,5 19,7 17,8 4 2 9 5 ESE 1014,2 20 0 0,0
14.08.2017 20:00:00 25,7 12,9 25,4 19,6 17,8 6 3 16 9 S 1014,3 20 39 0,0
14.08.2017 19:00:00 26,9 12,9 - - - 9 5 18 10 SSW 1014,3 20 - 0,0
14.08.2017 18:00:00 26,9 12,5 30,8 19,2 17,8 6 3 22 12 S 1014,5 20 60 0,0
14.08.2017 17:00:00 27,1 12,3 27,2 19,0 17,8 8 5 22 12 S 1014,8 20 50 0,0
14.08.2017 16:00:00 25,5 13,4 27,6 18,7 17,8 5 3 25 14 SSE 1015,4 20 33 0,0
14.08.2017 15:00:00 24,7 12,6 27,2 18,4 17,8 8 4 21 11 SSE 1016,0 20 43 0,0
14.08.2017 14:00:00 24,9 13,8 27,9 18,1 17,8 10 5 21 11 SSE 1016,6 19 50 0,0
14.08.2017 13:00:00 23,4 13,0 25,2 18,0 17,9 9 5 18 10 SE 1017,4 20 35 0,0
14.08.2017 12:00:00 22,3 12,5 27,0 17,8 17,9 6 3 14 7 ENE 1017,8 20 49 0,0
14.08.2017 11:00:00 21,2 12,6 26,6 17,7 17,8 8 4 16 9 SSE 1018,3 20 60 0,0
14.08.2017 10:00:00 19,7 12,0 21,8 17,7 17,8 5 3 9 5 SE 1018,5 20 60 0,0
14.08.2017 09:00:00 15,8 11,6 13,9 17,8 17,9 3 2 6 3 ENE 1019,0 20 35 0,0
14.08.2017 08:00:00 12,4 11,0 5,8 18,0 17,9 0 0 5 3 N 1019,2 20 34 0,0
14.08.2017 07:00:00 8,5 7,3 5,8 18,1 17,9 0 0 4 2 N 1019,4 20 0 0,0
14.08.2017 06:00:00 9,3 8,4 5,8 18,2 17,9 0 0 4 2 N 1019,4 20 0 0,0
14.08.2017 05:00:00 9,2 8,0 - - - 2 1 9 5 E 1019,6 20 - -
14.08.2017 04:00:00 9,5 8,4 6,6 18,5 17,9 0 0 3 2 N 1019,8 20 0 0,0
14.08.2017 03:00:00 9,9 8,2 7,2 18,7 17,9 0 0 9 5 N 1020,1 20 0 0,0
14.08.2017 02:00:00 10,9 9,5 - - - 2 1 5 3 W 1020,4 20 - -
14.08.2017 01:00:00 11,1 8,8 - - - 4 2 5 3 S 1020,6 20 - 0,0
14.08.2017 00:00:00 12,2 9,6 8,8 19,0 17,9 5 3 7 4 ESE 1020,9 20 0 0,0
13.08.2017 23:00:00 13,6 9,2 10,1 19,1 17,9 0 0 13 7 N 1020,9 20 0 0,0
13.08.2017 22:00:00 15,8 9,7 11,4 19,1 17,9 5 3 8 4 SSE 1020,7 20 0 0,0
13.08.2017 21:00:00 18,4 9,7 15,5 19,1 17,9 5 3 8 4 ESE 1020,2 20 0 0,0
13.08.2017 20:00:00 20,7 9,9 20,5 19,1 17,9 3 2 13 7 E 1019,9 20 7 0,0
13.08.2017 19:00:00 21,4 9,0 24,3 18,9 17,9 8 4 22 12 NNE 1020,0 20 56 0,0
13.08.2017 18:00:00 22,7 9,1 23,0 18,8 17,9 4 2 15 8 WNW 1020,1 20 23 0,0
13.08.2017 17:00:00 21,3 8,9 23,8 18,6 17,9 10 5 19 10 ENE 1020,6 18 37 0,0
13.08.2017 16:00:00 21,8 9,3 22,2 18,3 17,9 6 3 19 10 WSW 1020,8 18 29 0,0
13.08.2017 15:00:00 20,7 9,9 22,5 18,2 17,9 3 1 17 9 SE 1021,3 18 19 0,0
13.08.2017 14:00:00 20,9 10,7 22,4 18,0 17,9 2 1 13 7 N 1021,6 20 20 0,0
13.08.2017 13:00:00 18,8 9,8 22,7 17,9 17,9 6 3 13 7 SSE 1021,9 20 23 0,0
13.08.2017 12:00:00 18,2 11,0 19,7 17,9 17,9 4 2 11 6 SSE 1022,2 20 16 0,0
13.08.2017 11:00:00 16,9 9,6 19,5 17,8 17,9 2 1 9 5 N 1022,2 20 23 0,0
13.08.2017 10:00:00 16,2 11,4 17,0 17,8 17,9 4 2 9 5 W 1022,0 20 24 0,0
13.08.2017 09:00:00 14,4 11,4 14,5 17,9 17,9 4 2 9 5 W 1021,8 20 54 0,0
13.08.2017 08:00:00 12,3 10,7 11,1 18,0 17,9 3 2 10 5 WSW 1021,6 20 26 0,0
13.08.2017 07:00:00 11,7 10,3 9,9 18,1 18,0 5 3 9 5 W 1021,5 20 0 0,0
13.08.2017 06:00:00 11,3 9,9 8,1 18,2 17,9 4 2 9 5 W 1021,4 20 0 0,0
13.08.2017 05:00:00 12,1 10,7 9,1 18,2 17,9 2 1 7 4 WNW 1021,4 20 0 0,0
13.08.2017 04:00:00 13,3 11,7 11,5 18,3 17,9 4 2 12 7 NW 1021,4 20 0 0,0
13.08.2017 03:00:00 14,4 12,6 14,0 18,3 17,9 5 3 11 6 NNW 1021,2 20 0 0,0
13.08.2017 02:00:00 14,6 13,0 14,0 18,4 17,9 3 2 6 4 NW 1021,4 20 0 0,0
13.08.2017 01:00:00 14,7 13,4 13,3 18,4 17,9 6 3 16 9 N 1021,3 20 0 0,0
13.08.2017 00:00:00 15,7 14,9 14,9 18,4 17,9 7 4 11 6 NNW 1021,1 20 0 0,0
12.08.2017 23:00:00 16,5 15,5 15,4 18,4 17,9 5 3 9 5 WSW 1020,6 20 0 0,0
12.08.2017 22:00:00 17,0 15,9 16,6 18,4 17,9 3 2 14 7 SW 1020,4 20 0 0,2
12.08.2017 21:00:00 17,3 16,2 17,0 18,4 18,0 9 5 18 10 WSW 1020,0 6 0 1,4
12.08.2017 20:00:00 18,1 16,6 17,6 18,4 17,9 11 6 24 13 WSW 1019,7 6 0 0,4
12.08.2017 19:00:00 19,3 15,6 19,0 18,3 17,9 13 7 33 18 WSW 1019,6 20 0 0,0
12.08.2017 18:00:00 18,7 15,6 18,6 18,3 18,0 16 9 31 17 SW 1019,7 20 0 0,0
12.08.2017 17:00:00 18,2 15,3 18,3 18,3 18,0 13 7 34 19 SW 1020,1 20 0 0,0
12.08.2017 16:00:00 19,0 15,1 19,0 18,2 18,0 15 8 38 21 WSW 1020,1 20 0 0,0
12.08.2017 15:00:00 18,0 14,7 18,5 18,2 18,0 15 8 35 19 WSW 1020,3 20 0 0,0
12.08.2017 14:00:00 18,3 14,2 19,3 18,1 18,0 21 11 39 21 WSW 1020,2 20 0 0,0
12.08.2017 13:00:00 18,4 14,1 19,0 18,1 18,0 17 9 33 18 WSW 1020,2 20 0 0,0
12.08.2017 12:00:00 18,2 13,5 18,3 18,1 18,0 14 8 31 17 SW 1020,0 20 0 0,0
12.08.2017 11:00:00 16,8 12,3 17,0 18,1 18,0 15 8 31 17 SW 1019,9 20 0 0,0
12.08.2017 10:00:00 15,7 12,1 15,0 18,1 18,0 17 9 29 15 SW 1019,9 20 0 0,0
12.08.2017 09:00:00 14,5 11,5 14,7 18,2 18,0 13 7 27 15 SW 1020,0 20 0 0,0
12.08.2017 08:00:00 14,4 11,0 14,2 18,3 18,0 10 5 22 12 SW 1019,8 20 0 0,0
12.08.2017 07:00:00 14,2 10,6 14,1 18,3 18,0 10 5 20 11 SW 1019,7 20 0 0,0
12.08.2017 06:00:00 14,3 10,1 13,9 18,3 18,0 6 4 16 9 SW 1019,6 20 0 0,0
12.08.2017 05:00:00 14,3 9,7 13,9 18,4 18,0 8 4 16 8 SW 1019,8 20 0 0,0
12.08.2017 04:00:00 14,2 9,4 13,7 18,5 18,0 6 3 11 6 SW 1020,3 20 0 0,0
12.08.2017 03:00:00 14,0 9,6 11,9 18,7 18,0 5 3 11 6 WSW 1020,6 20 0 0,0
12.08.2017 02:00:00 13,3 9,5 11,8 18,7 18,0 4 2 10 6 WSW 1020,7 20 0 0,0
12.08.2017 01:00:00 14,0 9,8 12,6 18,8 18,0 5 3 11 6 W 1021,1 20 0 0,0
12.08.2017 00:00:00 14,7 9,9 13,0 18,9 18,0 5 3 17 9 W 1021,3 20 0 0,0
11.08.2017 23:00:00 16,1 10,2 14,7 18,9 18,0 8 5 17 9 WNW 1021,2 20 0 0,0
11.08.2017 22:00:00 17,7 10,6 16,5 18,9 18,0 10 5 20 11 W 1020,9 20 0 0,0
11.08.2017 21:00:00 19,0 10,8 17,9 18,9 18,0 6 4 22 12 W 1020,3 20 20 0,0
11.08.2017 20:00:00 20,1 10,8 20,1 18,8 18,0 8 4 21 11 W 1020,2 20 18 0,0
11.08.2017 19:00:00 21,3 11,6 21,7 18,7 18,0 9 5 23 13 W 1019,7 20 50 0,0
11.08.2017 18:00:00 20,5 11,1 22,5 18,6 18,0 8 5 23 12 WNW 1020,1 20 33 0,0
11.08.2017 17:00:00 19,7 11,5 22,1 18,5 18,0 14 7 29 16 NW 1020,5 20 13 0,0
11.08.2017 16:00:00 20,5 10,9 22,9 18,4 18,0 11 6 26 14 WNW 1020,5 20 32 0,0
11.08.2017 15:00:00 20,1 11,8 21,3 18,3 18,1 9 5 22 12 N 1020,7 20 15 0,0
11.08.2017 14:00:00 18,0 12,0 19,8 18,2 18,1 10 5 27 15 N 1021,3 20 0 0,0
11.08.2017 13:00:00 17,3 11,8 18,8 18,1 18,1 11 6 26 14 NNW 1021,2 20 13 0,0
11.08.2017 12:00:00 18,1 12,8 19,2 18,1 18,1 9 5 20 11 N 1021,1 20 20 0,0
11.08.2017 11:00:00 17,2 12,7 17,1 18,1 18,1 8 4 14 7 N 1021,0 20 10 0,0
11.08.2017 10:00:00 15,1 13,0 15,3 18,1 18,0 5 3 12 7 NNW 1020,8 11 0 0,0
11.08.2017 09:00:00 13,9 12,3 14,0 18,1 18,1 3 2 12 7 NNW 1020,9 8 0 0,0
11.08.2017 08:00:00 13,4 12,0 13,4 18,2 18,1 8 4 16 9 NNE 1020,7 9 0 0,0
11.08.2017 07:00:00 13,3 12,2 13,0 18,3 18,1 6 3 14 8 NNE 1020,7 9 0 0,0
11.08.2017 06:00:00 13,0 12,1 12,0 18,4 18,1 4 2 10 5 NNW 1020,3 12 0 0,0
11.08.2017 05:00:00 12,4 11,3 11,9 18,5 18,1 2 1 10 5 NNW 1020,5 12 0 0,0
11.08.2017 04:00:00 12,2 10,9 11,1 18,6 18,1 4 2 15 8 NNW 1020,9 20 0 0,0
11.08.2017 03:00:00 12,4 10,8 11,6 18,6 18,1 10 5 22 12 NNW 1021,1 20 0 0,0
11.08.2017 02:00:00 13,0 11,1 12,6 18,7 18,1 11 6 20 11 NNW 1021,4 20 0 0,0
11.08.2017 01:00:00 13,4 11,3 13,0 18,8 18,1 9 5 23 12 N 1021,7 20 0 0,0
11.08.2017 00:00:00 14,1 11,3 13,8 18,8 18,1 13 7 23 12 N 1021,4 20 0 0,0
10.08.2017 23:00:00 14,6 11,4 14,2 18,9 18,1 11 6 21 12 N 1021,2 20 0 0,0
10.08.2017 22:00:00 15,1 11,3 14,6 18,9 18,1 10 5 18 10 N 1020,9 20 0 0,0
10.08.2017 21:00:00 15,4 11,2 14,6 18,9 18,1 7 4 14 8 NNW 1020,4 20 5 0,0
10.08.2017 20:00:00 15,9 10,9 17,1 18,9 18,1 0 0 21 11 N 1019,8 20 31 0,0
10.08.2017 19:00:00 16,0 9,9 15,8 18,8 18,1 0 0 33 18 N 1019,8 20 6 0,0
10.08.2017 18:00:00 17,0 8,2 18,3 18,7 18,1 14 8 37 20 N 1019,3 20 11 0,0
10.08.2017 17:00:00 18,0 11,3 18,1 18,6 18,1 17 9 33 18 N 1019,1 20 26 0,0

tt = Température de l'air
td = dewpoint
tt 5cm = Température de l'air 5cm
tt -20cm = Température de l'air -20cm
tt -100cm = Température de l'air -100cm
ff = Vitesse du vent
fx = gusts
dd = Direction du vent
ppp = reduced air pressure
vv = visibility
sd = Ensoleillement
rr = Quantités de précipitations

stations d'obs. à proximité